Weather History for Cairns, QU

Change the Weather History Date:

Tuesday, February 18, 2014

  Actual Average Record
Temperature  
Mean Temperature 81 °F -  
Max Temperature 86 °F 87 °F 95 °F (1999)
Min Temperature 76 °F 73 °F 71 °F (2001)
Cooling Degree Days 16    
Growing Degree Days 31 (Base 50)    
Moisture  
Dew Point 76 °F    
Average Humidity 86    
Maximum Humidity 100    
Minimum Humidity 68    
Precipitation  
Precipitation 0.98 in 0.57 in - ()
Sea Level Pressure  
Sea Level Pressure 29.67 in    
Wind  
Wind Speed 5 mph ()    
Max Wind Speed 12 mph    
Max Gust Speed -    
Visibility 6.8 miles    
Events Rain    
Averages and records for this station are not official NWS values.
T = Trace of Precipitation, MM = Missing Value Source: Averaged Metar Reports

Daily Weather History Graph

Daily Weather History Graph

Search for Another Location

Airport:

Trip Planner

Search our weather history database for the weather conditions in past years. The results will help you decide how hot, cold, wet, or windy it might be!

Date:

Astronomy

Feb. 18, 2014 Rise Set
Actual Time 6:12 AM AEST 6:48 PM AEST
Civil Twilight 5:50 AM AEST 7:10 PM AEST
Nautical Twilight 5:24 AM AEST 7:36 PM AEST
Astronomical Twilight 4:58 AM AEST 8:03 PM AEST
Moon 8:45 PM AEST 8:32 AM AEST
Length of Visible Light 13h 20m
Length of Day
12h 35m
Waning Gibbous, 91% of the Moon is Illuminated
Feb 18
Waning Gibbous
Feb 23
Last Quarter
Mar 1
New
Mar 8
First Quarter
Mar 17
Full

Hourly Weather History & Observations

Time (AEST) Temp. Heat Index Dew Point Humidity Pressure Visibility Wind Dir Wind Speed Gust Speed Precip Events Conditions
12:00 AM 79 °F - 77 °F 92% 29.71 in - Calm Calm - -   Overcast
12:00 AM 78.8 °F - 77.0 °F 94% 29.71 in 6.2 mi Calm Calm - N/A Rain Light Rain Showers
12:30 AM 78.8 °F - 77.0 °F 94% 29.68 in 6.2 mi North 3.5 mph - N/A Rain Light Rain Showers
1:00 AM 78 °F - 77 °F 95% 29.69 in - SSE 1.2 mph - -  
1:00 AM 78.8 °F - 77.0 °F 94% 29.68 in 6.2 mi SSE 1.2 mph - N/A   Mostly Cloudy
1:12 AM 78.8 °F - 75.2 °F 89% 29.68 in - SSE 2.3 mph - N/A   Unknown
1:30 AM 78.8 °F - 77.0 °F 94% 29.65 in 6.2 mi SW 3.5 mph - N/A   Mostly Cloudy
2:00 AM 77.0 °F - 75.2 °F 94% 29.65 in 6.2 mi SSE 9.2 mph - N/A Rain Light Rain Showers
2:30 AM 77.0 °F - 75.2 °F 94% 29.65 in 6.2 mi South 1.2 mph - N/A Rain Light Rain Showers
3:00 AM 77 °F - 77 °F 98% 29.67 in 4 mi Calm Calm - -   Overcast
3:00 AM 77.0 °F - 77.0 °F 100% 29.65 in 3.7 mi Calm Calm - N/A Rain Light Rain
3:11 AM 77.0 °F - 77.0 °F 100% 29.65 in 5.0 mi Calm Calm - N/A Rain Light Rain
3:30 AM 77.0 °F - 77.0 °F 100% 29.65 in 6.2 mi SSE 5.8 mph - N/A Rain Light Rain
4:00 AM 77 °F - 75 °F 93% 29.67 in - SSE 8.1 mph - -  
4:00 AM 77.0 °F - 75.2 °F 94% 29.65 in 6.2 mi SSE 8.1 mph - N/A Rain Light Rain
4:30 AM 77.0 °F - 75.2 °F 94% 29.65 in 6.2 mi SSE 9.2 mph - N/A   Light Drizzle
5:00 AM 77.0 °F - 75.2 °F 94% 29.65 in 6.2 mi SSE 8.1 mph - N/A   Mostly Cloudy
5:30 AM 77.0 °F - 75.2 °F 94% 29.65 in 6.2 mi South 5.8 mph - N/A   Mostly Cloudy
6:00 AM 77 °F - 75 °F 92% 29.68 in 19 mi SSE 9.2 mph - -   Partly Cloudy
6:00 AM 77.0 °F - 75.2 °F 94% 29.68 in 6.2 mi SSE 9.2 mph - N/A   Mostly Cloudy
6:30 AM 77.0 °F - 75.2 °F 94% 29.68 in 6.2 mi SSW 4.6 mph - N/A   Mostly Cloudy
7:00 AM 78 °F - 76 °F 91% 29.70 in - SSE 11.5 mph - -  
7:00 AM 77.0 °F - 75.2 °F 94% 29.68 in 6.2 mi SSE 11.5 mph - N/A   Mostly Cloudy
7:30 AM 78.8 °F - 75.2 °F 89% 29.68 in 6.2 mi SSE 9.2 mph - N/A   Mostly Cloudy
8:00 AM 80.6 °F 86.2 °F 75.2 °F 84% 29.71 in 6.2 mi SSE 6.9 mph - N/A   Mostly Cloudy
8:30 AM 80.6 °F 86.2 °F 75.2 °F 84% 29.71 in 6.2 mi South 4.6 mph - N/A   Mostly Cloudy
9:00 AM 82 °F - 76 °F 78% 29.73 in 19 mi SSE 9.2 mph - -   Partly Cloudy
9:00 AM 82.4 °F 90.9 °F 77.0 °F 84% 29.71 in 6.2 mi SSE 9.2 mph - N/A   Mostly Cloudy
9:30 AM 84.2 °F 94.1 °F 77.0 °F 79% 29.71 in 6.2 mi SSE 9.2 mph - N/A   Mostly Cloudy
10:00 AM 85 °F - 76 °F 68% 29.73 in - SE 6.9 mph - -  
10:00 AM 84.2 °F 94.1 °F 77.0 °F 79% 29.71 in 6.2 mi SE 6.9 mph - N/A   Mostly Cloudy
10:30 AM 84.2 °F 94.1 °F 77.0 °F 79% 29.71 in 6.2 mi East 5.8 mph - N/A   Mostly Cloudy
11:00 AM 84.2 °F 94.1 °F 77.0 °F 79% 29.71 in 6.2 mi ENE 8.1 mph - N/A   Mostly Cloudy
11:30 AM 84.2 °F 94.1 °F 77.0 °F 79% 29.71 in 6.2 mi NE 6.9 mph - N/A   Mostly Cloudy
12:00 PM 85 °F - 78 °F 73% 29.70 in 19 mi ENE 9.2 mph - -   Partly Cloudy
12:00 PM 84.2 °F 94.1 °F 77.0 °F 79% 29.68 in 6.2 mi ENE 9.2 mph - N/A   Mostly Cloudy
12:30 PM 86.0 °F 96.9 °F 77.0 °F 74% 29.68 in 6.2 mi ENE 9.2 mph - N/A   Mostly Cloudy
1:00 PM 85 °F - 78 °F 73% 29.69 in - ENE 10.4 mph - -  
1:00 PM 86.0 °F 96.9 °F 77.0 °F 74% 29.68 in 6.2 mi ENE 10.4 mph - N/A   Mostly Cloudy
1:30 PM 84.2 °F 92.3 °F 75.2 °F 74% 29.65 in 6.2 mi ENE 9.2 mph - N/A   Mostly Cloudy
2:00 PM 86.0 °F 95.1 °F 75.2 °F 70% 29.65 in 6.2 mi NE 6.9 mph - N/A   Mostly Cloudy
2:30 PM 84.2 °F 94.1 °F 77.0 °F 79% 29.62 in 6.2 mi NE 8.1 mph - N/A   Mostly Cloudy
3:00 PM 84 °F - 76 °F 71% 29.64 in 19 mi NE 8.1 mph - -   Partly Cloudy
3:00 PM 84.2 °F 94.1 °F 77.0 °F 79% 29.62 in 6.2 mi NE 8.1 mph - N/A   Mostly Cloudy
3:30 PM 82.4 °F 90.9 °F 77.0 °F 84% 29.62 in 6.2 mi NE 5.8 mph - N/A   Mostly Cloudy
4:00 PM 83 °F - 76 °F 75% 29.64 in - ENE 5.8 mph - -  
4:00 PM 84.2 °F 94.1 °F 77.0 °F 79% 29.62 in 6.2 mi ENE 5.8 mph - N/A   Mostly Cloudy
4:30 PM 84.2 °F 94.1 °F 77.0 °F 79% 29.62 in 6.2 mi ENE 6.9 mph - N/A   Mostly Cloudy
5:00 PM 84.2 °F 94.1 °F 77.0 °F 79% 29.62 in 6.2 mi ENE 5.8 mph - N/A   Mostly Cloudy
5:30 PM 84.2 °F 94.1 °F 77.0 °F 79% 29.62 in 6.2 mi NE 5.8 mph - N/A   Mostly Cloudy
6:00 PM 83 °F - 76 °F 75% 29.65 in - ENE 4.6 mph - -  
6:00 PM 82.4 °F 90.9 °F 77.0 °F 84% 29.62 in 6.2 mi ENE 4.6 mph - N/A   Scattered Clouds
6:30 PM 82.4 °F 90.9 °F 77.0 °F 84% 29.65 in 6.2 mi East 5.8 mph - N/A   Scattered Clouds
7:00 PM 81 °F - 77 °F 85% 29.67 in - East 8.1 mph - -  
7:00 PM 80.6 °F 87.1 °F 77.0 °F 89% 29.65 in 5.0 mi East 8.1 mph - N/A Rain Light Rain Showers
7:30 PM 80.6 °F 87.1 °F 77.0 °F 89% 29.65 in 6.2 mi SE 5.8 mph - N/A   Scattered Clouds
8:00 PM 80.6 °F 87.1 °F 77.0 °F 89% 29.65 in 6.2 mi South 4.6 mph - N/A   Scattered Clouds
8:30 PM 80.6 °F 87.1 °F 77.0 °F 89% 29.65 in 6.2 mi SSE 5.8 mph - N/A Rain Light Rain Showers
8:56 PM 78.8 °F - 77.0 °F 94% 29.68 in 3.1 mi ENE 8.1 mph - N/A Rain Rain Showers
9:00 PM 78 °F - 76 °F 92% 29.68 in 2 mi North 8.1 mph - -   Overcast
9:15 PM 78.8 °F - 77.0 °F 94% 29.68 in 6.2 mi ENE 2.3 mph - N/A   Mostly Cloudy
9:30 PM 80.6 °F 87.1 °F 77.0 °F 89% 29.68 in 6.2 mi North 8.1 mph - N/A Rain Light Rain Showers
10:00 PM 80 °F - 77 °F 86% 29.70 in - West 6.9 mph - -  
10:00 PM 80.6 °F 87.1 °F 77.0 °F 89% 29.68 in 6.2 mi West 6.9 mph - N/A Rain Light Rain Showers
10:07 PM 78.8 °F - 77.0 °F 94% 29.68 in 6.2 mi West 5.8 mph - N/A Rain Light Rain Showers
10:30 PM 78.8 °F - 77.0 °F 94% 29.68 in 6.2 mi WNW 8.1 mph - N/A Rain Light Rain Showers
11:00 PM 78.8 °F - 77.0 °F 94% 29.68 in 6.2 mi WNW 4.6 mph - N/A Rain Light Rain Showers
11:30 PM 78.8 °F - 77.0 °F 94% 29.68 in 6.2 mi Calm Calm - N/A   Mostly Cloudy